This is the latest recevied weather packets stored in our database for station/object S54A-10. If no packets are shown the sender has not sent any weather packets the latest 10 day(s).
| Time | Temp. | Humidity | Pressure | Rain* | Wind** | Luminosity | Snow |
|---|---|---|---|---|---|---|---|
| 1777561202 | 21.11° C | 29% | 1026.3 hPa | - | - | - | - |
| 1777560302 | 20° C | 30% | 1026.4 hPa | - | - | - | - |
| 1777559402 | 20° C | 29% | 1026.5 hPa | - | - | - | - |
| 1777558502 | 22.78° C | 28% | 1026.5 hPa | - | - | - | - |
| 1777557602 | 22.22° C | 28% | 1026.4 hPa | - | - | - | - |
| 1777556702 | 20° C | 31% | 1026.6 hPa | - | - | - | - |
| 1777555802 | 18.33° C | 30% | 1026.6 hPa | - | - | - | - |
| 1777554902 | 17.22° C | 32% | 1026.9 hPa | - | - | - | - |
| 1777554002 | 16.67° C | 33% | 1026.9 hPa | - | - | - | - |
| 1777553102 | 16.11° C | 33% | 1027.1 hPa | - | - | - | - |
| 1777552201 | 15.56° C | 34% | 1027.3 hPa | - | - | - | - |
| 1777551301 | 15° C | 33% | 1027.5 hPa | - | - | - | - |
| 1777550401 | 15° C | 35% | 1027.6 hPa | - | - | - | - |
| 1777549501 | 15° C | 34% | 1027.8 hPa | - | - | - | - |
| 1777548601 | 14.44° C | 35% | 1027.9 hPa | - | - | - | - |
| 1777547701 | 13.89° C | 35% | 1027.9 hPa | - | - | - | - |
| 1777546801 | 13.89° C | 36% | 1028.1 hPa | - | - | - | - |
| 1777545901 | 13.33° C | 37% | 1028 hPa | - | - | - | - |
| 1777545001 | 12.78° C | 37% | 1028.1 hPa | - | - | - | - |
| 1777544101 | 12.22° C | 36% | 1028.3 hPa | - | - | - | - |
| 1777543201 | 12.22° C | 38% | 1028.6 hPa | - | - | - | - |
| 1777542301 | 11.67° C | 37% | 1028.7 hPa | - | - | - | - |
| 1777541401 | 11.11° C | 38% | 1028.8 hPa | - | - | - | - |
| 1777540501 | 11.11° C | 39% | 1028.9 hPa | - | - | - | - |
| 1777539600 | 10.56° C | 39% | 1029.1 hPa | - | - | - | - |
* Rain since midnight (hover to see other rain measurements)
** Current wind speed in m/s (hover to see current wind gust speed)